Find Starlink 31647

NORAD ID: 59389 Int'l Des: 2024-062 Owner: SPXS Country: US Constellation: starlink operational
LEOCIRCULAR

Current View

Loading 3D Globe...

About Starlink 31647

Starlink 31647 (NORAD 59389) is a starlink constellation satellite (v2 mini) launched Apr 2, 2024 by SPXS of US. It operates in LEO, CIRCULAR orbit with a mass of 730.00 kg.

About Starlink 31647

Description loading...

Upcoming Passes

Passes for default location (London). Set your location on the main map for personalized predictions.

Altitude History

Loading altitude history...

Two-Line Element Set

1 59389U 24062R 26171.17163592 -.00000060 00000-0 93628-5 0 9999
2 59389 53.1609 139.5548 0001208 87.5122 272.6018 15.34387826125361
Epoch: Jun 20, 2026 • Age: 8 hours

Current Status

Altitude 468.4 km
Velocity 7.64 km/s
Sub-Earth Point 52.69°N, 145.96°E
Launch Date Apr 2, 2024
Age 2.2 years
Type internet

Technical Details

Classification Payload
Mass 730.00 kg
Dry Mass 700.00 kg
Total Mass 730.00 kg
Length 0.30 m
Diameter 4.10 m
Span 29.00 m
Shape Box + pan
Manufacturer SPXS
Bus Type Starlink V2M
Phase Status In Orbit
Owner/State SPXS/US

Most Searched